Greenville, SC

6:26 PM EST on January 16, 2017 (GMT -0500)
Greenville Downtown

Weather History for KGMU - June, 2013

Change the Weather History Date:

Friday, June 21, 2013

  Actual Average Record
Temperature  
Mean Temperature 75 °F -  
Max Temperature 84 °F 83 °F 97 °F (2006)
Min Temperature 66 °F 65 °F 59 °F (2003)
Cooling Degree Days 10    
Growing Degree Days 25 (Base 50)    
Moisture  
Dew Point 61 °F    
Average Humidity 62    
Maximum Humidity 87    
Minimum Humidity 41    
Precipitation  
Precipitation 0.00 in - - ()
Sea Level Pressure  
Sea Level Pressure 30.22 in    
Wind  
Wind Speed 5 mph (NE)    
Max Wind Speed 12 mph    
Max Gust Speed -    
Visibility 10 miles    
Events      
Averages and records for this station are not official NWS values.
T = Trace of Precipitation, MM = Missing Value Source: NWS Daily Summary

Daily Weather History Graph

Daily Weather History Graph

Search for Another Location

Airport or City:

Trip Planner

Search our weather history database for the weather conditions in past years. The results will help you decide how hot, cold, wet, or windy it might be!

Date:

Astronomy

Jun. 21, 2013 Rise Set
Actual Time 6:16 AM EDT 8:46 PM EDT
Civil Twilight 5:46 AM EDT 9:15 PM EDT
Nautical Twilight 5:09 AM EDT 9:52 PM EDT
Astronomical Twilight 4:29 AM EDT 10:33 PM EDT
Moon 6:58 PM EDT (6/21) 4:27 AM EDT (6/21)
Length of Visible Light 15h 29m
Length of Day
14h 29m
Waxing Gibbous, 95% of the Moon is Illuminated
Jun 21
Waxing Gibbous
Jun 23
Full
Jun 30
Last Quarter
Jul 8
New
Jul 15
First Quarter

Hourly Weather History & Observations

Time (EDT) Temp. Heat Index Dew Point Humidity Pressure Visibility Wind Dir Wind Speed Gust Speed Precip Events Conditions
12:53 AM 73.0 °F - 63.0 °F 71% 30.22 in 10.0 mi Calm Calm - N/A   Clear
1:53 AM 72.0 °F - 62.1 °F 71% 30.21 in 10.0 mi ENE 4.6 mph - N/A   Clear
2:53 AM 69.1 °F - 63.0 °F 81% 30.20 in 10.0 mi NE 4.6 mph - N/A   Clear
3:53 AM 68.0 °F - 63.0 °F 84% 30.21 in 10.0 mi NNE 5.8 mph - N/A   Scattered Clouds
4:53 AM 68.0 °F - 62.1 °F 81% 30.21 in 10.0 mi NE 4.6 mph - N/A   Clear
5:53 AM 66.9 °F - 62.1 °F 84% 30.22 in 10.0 mi NNE 5.8 mph - N/A   Clear
6:53 AM 66.0 °F - 62.1 °F 87% 30.24 in 10.0 mi NNE 6.9 mph - N/A   Partly Cloudy
7:53 AM 69.1 °F - 61.0 °F 75% 30.26 in 10.0 mi NNE 8.1 mph - N/A   Overcast
8:53 AM 71.1 °F - 60.1 °F 68% 30.27 in 10.0 mi East 6.9 mph - N/A   Overcast
9:53 AM 73.9 °F - 60.1 °F 62% 30.27 in 10.0 mi NNE 8.1 mph - N/A   Partly Cloudy
10:53 AM 75.9 °F - 60.1 °F 58% 30.27 in 10.0 mi NNE 6.9 mph - N/A   Mostly Cloudy
11:53 AM 77.0 °F - 61.0 °F 58% 30.27 in 10.0 mi NE 6.9 mph - N/A   Partly Cloudy
12:53 PM 79.0 °F - 61.0 °F 54% 30.26 in 10.0 mi NNE 9.2 mph - N/A   Scattered Clouds
1:53 PM 82.0 °F 82.4 °F 60.1 °F 47% 30.25 in 10.0 mi Variable 5.8 mph - N/A   Mostly Cloudy
2:53 PM 82.0 °F 82.4 °F 60.1 °F 47% 30.22 in 10.0 mi NE 6.9 mph - N/A   Partly Cloudy
3:53 PM 84.0 °F 83.8 °F 59.0 °F 43% 30.21 in 10.0 mi NNE 9.2 mph - N/A   Clear
4:53 PM 84.0 °F 83.8 °F 59.0 °F 43% 30.19 in 10.0 mi NE 11.5 mph - N/A   Partly Cloudy
5:53 PM 84.0 °F 83.5 °F 57.9 °F 41% 30.18 in 10.0 mi ENE 9.2 mph - N/A   Scattered Clouds
6:53 PM 82.9 °F 82.6 °F 57.9 °F 42% 30.17 in 10.0 mi East 8.1 mph - N/A   Mostly Cloudy
7:53 PM 80.1 °F 80.9 °F 60.1 °F 50% 30.18 in 10.0 mi East 8.1 mph - N/A   Clear
8:53 PM 78.1 °F - 61.0 °F 56% 30.17 in 10.0 mi ESE 5.8 mph - N/A   Clear
9:53 PM 75.9 °F - 60.1 °F 58% 30.19 in 10.0 mi East 4.6 mph - N/A   Clear
10:53 PM 73.9 °F - 61.0 °F 64% 30.21 in 10.0 mi East 4.6 mph - N/A   Clear
11:53 PM 72.0 °F - 62.1 °F 71% 30.22 in 10.0 mi North 3.5 mph - N/A   Clear